Location: Fort Worth, Tx
(32.7431°N, 97.3695°W)
Time: 01:52:47
(UTC-05:00)

ISS - Visible Passes

Search period start: 08 February 2023 00:00
Search period end: 18 February 2023 00:00
Orbit: 412 x 423 km, 51.6° (Epoch: 08 February)

Date Brightness Start Highest point End Pass type
(mag) Time Alt. Az. Time Alt. Az. Time Alt. Az.
08 Feb -0.4 19:33:45 10° W 19:35:31 14° SW 19:37:16 10° SSW visible
13 Feb -0.3 07:25:05 10° SE 07:26:05 11° SE 07:27:05 10° ESE visible
15 Feb -2.3 07:22:48 10° SSW 07:25:54 38° SE 07:29:02 10° ENE visible
16 Feb -1.2 06:35:12 10° S 06:37:40 20° SE 06:40:10 10° E visible
17 Feb -3.6 07:22:42 11° WSW 07:25:49 53° NW 07:29:04 10° NE visible
